Weather History for KHJO - December, 2014

Change the Weather History Date:

Monday, December 1, 2014

  Actual Average Record
Temperature  
Mean Temperature 56 °F 47 °F  
Max Temperature 71 °F 58 °F 71 °F (2014)
Min Temperature 41 °F 35 °F 23 °F (1948)
Degree Days  
Heating Degree Days 9    
Month to date heating degree days 9  
Since 1 July heating degree days 320  
Cooling Degree Days 0    
Month to date cooling degree days 0  
Year to date cooling degree days 2274  
Growing Degree Days 6 (Base 50)    
Moisture  
Dew Point 44 °F    
Average Humidity 68    
Maximum Humidity 96    
Minimum Humidity 40    
Precipitation  
Precipitation 0.00 in 0.02 in 0.24 in (1998)
Month to date precipitation 0.00 0.02  
Year to date precipitation 3.24 8.49  
Since 1 July precipitation 0.81 1.73  
Snow  
Snow 0.00 in - - ()
Month to date snowfall 0.0  
Since 1 July snowfall 0.0  
Snow Depth 0.00 in    
Sea Level Pressure  
Sea Level Pressure 30.09 in    
Wind  
Wind Speed 2 mph (SSE)    
Max Wind Speed 7 mph    
Max Gust Speed 9 mph    
T = Trace of Precipitation, MM = Missing Value Source: NWS Daily Summary

Daily Weather History Graph

Daily Weather History Graph

Search for Another Location

Airport or City:

Trip Planner

Search our weather history database for the weather conditions in past years. The results will help you decide how hot, cold, wet, or windy it might be!

Date:

Astronomy

Dec. 01, 2014 Rise Set
Actual Time 6:51 AM PST 4:43 PM PST
Civil Twilight 6:23 AM PST 5:11 PM PST
Nautical Twilight 5:51 AM PST 5:43 PM PST
Astronomical Twilight 5:20 AM PST 6:14 PM PST
Moon 1:44 PM PST (12/1) 1:42 AM PST (12/1)
Length of Visible Light 10h 48m
Length of Day
9h 52m
Waxing Gibbous, 76% of the Moon is Illuminated
Dec 1
Waxing Gibbous
Dec 6
Full
Dec 14
Last Quarter
Dec 21
New
Dec 28
First Quarter

Hourly Weather History & Observations

Time (PST) Temp. Windchill Dew Point Humidity Pressure Visibility Wind Dir Wind Speed Gust Speed Precip Events Conditions
12:53 AM 48.0 °F - 44.1 °F 86% 30.07 in - Variable 4.6 mph - N/A   Clear
1:53 AM 48.9 °F - 45.0 °F 86% 30.09 in - Calm Calm - N/A   Clear
2:53 AM 45.0 °F - 43.0 °F 93% 30.10 in - Calm Calm - N/A   Clear
3:53 AM 44.1 °F 40.1 °F 42.1 °F 93% 30.10 in - ENE 6.9 mph - N/A   Clear
4:53 AM 43.0 °F 40.3 °F 41.0 °F 93% 30.12 in - East 4.6 mph - N/A   Clear
5:53 AM 41.0 °F 39.0 °F 39.0 °F 93% 30.12 in - SE 3.5 mph - N/A   Clear
6:53 AM 43.0 °F 41.3 °F 39.9 °F 89% 30.14 in - South 3.5 mph - N/A   Clear
7:53 AM 46.9 °F - 42.1 °F 83% 30.17 in - Calm Calm - N/A   Clear
8:53 AM 54.0 °F - 45.0 °F 72% 30.19 in - SSE 5.8 mph - N/A   Clear
9:53 AM 59.0 °F - 45.0 °F 60% 30.18 in - South 5.8 mph - N/A   Clear
10:53 AM 63.0 °F - 44.1 °F 50% 30.16 in - Variable 3.5 mph - N/A   Clear
11:53 AM 66.0 °F - 44.1 °F 45% 30.13 in - Calm Calm - N/A   Clear
12:53 PM 68.0 °F - 44.1 °F 42% 30.09 in - Calm Calm - N/A   Clear
1:53 PM 70.0 °F - 46.0 °F 42% 30.06 in - Calm Calm - N/A   Clear
2:53 PM 70.0 °F - 45.0 °F 41% 30.04 in - South 3.5 mph - N/A   Clear
3:53 PM 68.0 °F - 46.9 °F 47% 30.03 in - SSW 4.6 mph - N/A   Clear
4:53 PM 63.0 °F - 46.9 °F 56% 30.03 in - Calm Calm - N/A   Clear
5:53 PM 59.0 °F - 46.0 °F 62% 30.05 in - Calm Calm - N/A   Clear
6:53 PM 55.0 °F - 46.0 °F 72% 30.06 in - ESE 4.6 mph - N/A   Clear
7:53 PM 53.1 °F - 46.0 °F 77% 30.05 in - Calm Calm - N/A   Clear
8:53 PM 52.0 °F - 45.0 °F 77% 30.04 in - ENE 3.5 mph - N/A   Clear
9:53 PM 52.0 °F - 45.0 °F 77% 30.03 in - Calm Calm - N/A   Clear
10:53 PM 48.9 °F - 44.1 °F 83% 30.04 in - Calm Calm - N/A   Clear
11:53 PM 48.9 °F - 44.1 °F 83% 30.02 in - South 4.6 mph - N/A   Clear